TimeCST,TemperatureF,Dew PointF,Humidity,Sea Level PressureIn,VisibilityMPH,Wind Direction,Wind SpeedMPH,Gust SpeedMPH,PrecipitationIn,Events,Conditions,WindDirDegrees,DateUTC
12:15 AM,48.2,44.6,87,29.65,10.0,East,8.1,-,N/A,,Clear,90,2012-11-10 06:15:00
12:35 AM,48.2,44.6,87,29.64,10.0,East,10.4,-,N/A,,Clear,90,2012-11-10 06:35:00
12:55 AM,50.0,46.4,87,29.63,10.0,East,12.7,18.4,N/A,,Clear,100,2012-11-10 06:55:00
1:15 AM,50.0,46.4,87,29.62,10.0,ESE,11.5,18.4,N/A,,Clear,110,2012-11-10 07:15:00
1:35 AM,50.0,46.4,87,29.61,10.0,ESE,13.8,20.7,N/A,,Clear,120,2012-11-10 07:35:00
1:55 AM,50.0,46.4,87,29.60,10.0,ESE,13.8,24.2,N/A,,Clear,120,2012-11-10 07:55:00
2:15 AM,50.0,46.4,87,29.60,10.0,ESE,15.0,18.4,N/A,,Clear,120,2012-11-10 08:15:00
2:35 AM,50.0,48.2,94,29.59,10.0,ESE,15.0,19.6,N/A,,Clear,110,2012-11-10 08:35:00
2:55 AM,51.8,48.2,88,29.58,10.0,ESE,16.1,24.2,N/A,,Clear,120,2012-11-10 08:55:00
3:15 AM,51.8,48.2,88,29.58,10.0,ESE,15.0,24.2,N/A,,Clear,120,2012-11-10 09:15:00
3:35 AM,51.8,48.2,88,29.57,7.0,ESE,13.8,19.6,N/A,,Mostly Cloudy,120,2012-11-10 09:35:00
3:55 AM,51.8,48.2,88,29.57,7.0,SE,12.7,18.4,N/A,,Mostly Cloudy,140,2012-11-10 09:55:00
4:15 AM,51.8,48.2,88,29.56,7.0,SE,10.4,-,N/A,,Scattered Clouds,130,2012-11-10 10:15:00
4:35 AM,51.8,50.0,94,29.55,7.0,SE,11.5,18.4,N/A,,Clear,130,2012-11-10 10:35:00
4:55 AM,51.8,50.0,94,29.55,7.0,SE,11.5,-,N/A,,Clear,130,2012-11-10 10:55:00
5:15 AM,51.8,50.0,94,29.54,7.0,SE,12.7,18.4,N/A,,Clear,130,2012-11-10 11:15:00
5:35 AM,51.8,48.2,88,29.54,7.0,SE,10.4,17.3,N/A,,Clear,130,2012-11-10 11:35:00
5:55 AM,50.0,48.2,94,29.54,7.0,SE,10.4,-,N/A,,Clear,130,2012-11-10 11:55:00
6:15 AM,50.0,48.2,94,29.54,7.0,SE,9.2,-,N/A,,Clear,130,2012-11-10 12:15:00
6:35 AM,51.8,50.0,94,29.53,7.0,SE,10.4,-,N/A,,Clear,130,2012-11-10 12:35:00
6:55 AM,51.8,50.0,94,29.54,7.0,SE,6.9,-,N/A,,Clear,140,2012-11-10 12:55:00
7:15 AM,48.2,48.2,100,29.55,7.0,SSW,4.6,-,N/A,,Clear,200,2012-11-10 13:15:00
7:35 AM,48.2,48.2,100,29.54,4.0,SW,4.6,-,N/A,,Scattered Clouds,220,2012-11-10 13:35:00
7:55 AM,50.0,50.0,100,29.55,7.0,South,6.9,-,N/A,,Clear,170,2012-11-10 13:55:00
8:15 AM,51.8,50.0,94,29.55,7.0,SSW,4.6,-,N/A,,Mostly Cloudy,200,2012-11-10 14:15:00
8:35 AM,55.4,53.6,94,29.55,7.0,SSW,12.7,17.3,N/A,,Scattered Clouds,200,2012-11-10 14:35:00
8:55 AM,55.4,51.8,88,29.54,10.0,SSW,16.1,-,N/A,,Clear,210,2012-11-10 14:55:00
9:15 AM,55.4,46.4,72,29.54,10.0,SSW,13.8,19.6,N/A,,Clear,200,2012-11-10 15:15:00
9:35 AM,55.4,44.6,67,29.54,10.0,SSW,20.7,26.5,N/A,,Clear,200,2012-11-10 15:35:00
9:55 AM,57.2,44.6,63,29.54,10.0,SW,16.1,24.2,N/A,,Clear,220,2012-11-10 15:55:00
10:15 AM,57.2,44.6,63,29.55,10.0,SW,15.0,26.5,N/A,,Clear,220,2012-11-10 16:15:00
10:35 AM,57.2,44.6,63,29.55,10.0,SSW,15.0,-,N/A,,Clear,210,2012-11-10 16:35:00
10:55 AM,59.0,44.6,59,29.56,10.0,SW,17.3,25.3,N/A,,Clear,230,2012-11-10 16:55:00
11:15 AM,59.0,44.6,59,29.56,10.0,SW,13.8,-,N/A,,Clear,220,2012-11-10 17:15:00
11:35 AM,57.2,44.6,63,29.56,10.0,SW,12.7,17.3,N/A,,Clear,220,2012-11-10 17:35:00
11:55 AM,57.2,44.6,63,29.55,10.0,SW,10.4,-,N/A,,Clear,230,2012-11-10 17:55:00
12:15 PM,57.2,44.6,63,29.55,10.0,WSW,9.2,-,N/A,,Clear,250,2012-11-10 18:15:00
12:35 PM,55.4,42.8,63,29.55,10.0,SW,10.4,-,N/A,,Clear,230,2012-11-10 18:35:00
12:55 PM,55.4,42.8,63,29.55,10.0,WSW,11.5,19.6,N/A,,Clear,250,2012-11-10 18:55:00
1:15 PM,51.8,42.8,71,29.54,10.0,West,6.9,-,N/A,,Clear,270,2012-11-10 19:15:00
1:35 PM,51.8,42.8,71,29.53,10.0,West,4.6,-,N/A,,Clear,260,2012-11-10 19:35:00
1:55 PM,53.6,42.8,67,29.52,10.0,West,5.8,-,N/A,,Clear,270,2012-11-10 19:55:00
2:15 PM,55.4,44.6,67,29.51,10.0,West,4.6,-,N/A,,Clear,270,2012-11-10 20:15:00
2:35 PM,55.4,44.6,67,29.50,10.0,Calm,Calm,-,N/A,,Clear,0,2012-11-10 20:35:00
2:55 PM,57.2,44.6,63,29.48,10.0,Calm,Calm,-,N/A,,Clear,0,2012-11-10 20:55:00
3:15 PM,57.2,44.6,63,29.49,10.0,Calm,Calm,-,N/A,,Clear,0,2012-11-10 21:15:00
3:35 PM,57.2,44.6,63,29.49,10.0,Calm,Calm,-,N/A,,Clear,0,2012-11-10 21:35:00
3:55 PM,57.2,44.6,63,29.48,10.0,Calm,Calm,-,N/A,,Clear,0,2012-11-10 21:55:00
4:15 PM,57.2,44.6,63,29.48,10.0,NNW,5.8,-,N/A,,Clear,340,2012-11-10 22:15:00
4:35 PM,55.4,44.6,67,29.51,10.0,NNW,9.2,-,N/A,,Mostly Cloudy,340,2012-11-10 22:35:00
4:55 PM,53.6,44.6,72,29.49,10.0,North,8.1,-,N/A,,Mostly Cloudy,10,2012-11-10 22:55:00
5:15 PM,51.8,44.6,76,29.48,10.0,NE,5.8,-,N/A,,Scattered Clouds,50,2012-11-10 23:15:00
5:35 PM,50.0,42.8,76,29.48,10.0,North,4.6,-,N/A,,Clear,360,2012-11-10 23:35:00
5:55 PM,48.2,42.8,82,29.46,10.0,ENE,4.6,-,N/A,,Clear,70,2012-11-10 23:55:00
6:15 PM,51.8,42.8,71,29.45,10.0,NE,5.8,-,N/A,,Clear,50,2012-11-11 00:15:00
6:35 PM,50.0,42.8,76,29.45,10.0,NE,4.6,-,N/A,,Scattered Clouds,40,2012-11-11 00:35:00
6:55 PM,48.2,42.8,82,29.46,10.0,NNW,4.6,-,N/A,,Overcast,340,2012-11-11 00:55:00
7:15 PM,48.2,44.6,87,29.50,7.0,SSE,4.6,31.1,N/A,Rain,Rain,150,2012-11-11 01:15:00
7:35 PM,48.2,44.6,87,29.51,7.0,NW,17.3,20.7,0.01,Rain,Rain,310,2012-11-11 01:35:00
7:55 PM,46.4,44.6,93,29.54,1.5,North,8.1,23.0,0.25,Rain,Heavy Rain,350,2012-11-11 01:55:00
8:15 PM,44.6,44.6,100,29.51,5.0,North,9.2,-,0.07,Rain,Heavy Rain,360,2012-11-11 02:15:00
8:35 PM,44.6,44.6,100,29.51,5.0,North,5.8,-,0.13,Rain,Heavy Rain,360,2012-11-11 02:35:00
8:55 PM,44.6,44.6,100,29.53,5.0,WNW,11.5,-,0.17,Rain,Rain,300,2012-11-11 02:55:00
9:15 PM,44.6,44.6,100,29.55,7.0,NW,11.5,16.1,0.01,Rain,Rain,310,2012-11-11 03:15:00
9:35 PM,44.6,42.8,93,29.60,10.0,NW,17.3,24.2,0.02,,Overcast,310,2012-11-11 03:35:00
10:35 PM,39.2,39.2,100,29.65,10.0,NW,15.0,18.4,N/A,,Overcast,310,2012-11-11 04:35:00
10:55 PM,39.2,37.4,93,29.66,10.0,NW,19.6,23.0,N/A,,Overcast,310,2012-11-11 04:55:00
11:15 PM,37.4,35.6,93,29.67,10.0,NW,15.0,23.0,N/A,,Overcast,320,2012-11-11 05:15:00
11:35 PM,35.6,33.8,93,29.68,10.0,NW,17.3,29.9,N/A,,Overcast,310,2012-11-11 05:35:00
11:55 PM,33.8,30.2,87,29.69,10.0,NW,21.9,31.1,N/A,,Drizzle,310,2012-11-11 05:55:00